Regional Weather Roundup
Issued by NWS

Home | Current Version | Previous Version | Text Only | Print | Product List | Glossary Off
Versions: 1 2 3 4 5 6 7 8 9 10 11 12 13 14 15 16 17 18 19 20 21 22 23 24 25 26 27 28 29 30 31 32 33 34 35 36 37 38 39 40 41 42 43 44 45 46 47 48

000
ASUS45 KPSR 220410
RWRAZ

ARIZONA HOURLY REGIONAL WEATHER ROUNDUP
NATIONAL WEATHER SERVICE PHOENIX AZ
900 PM MST WED JUN 21 2017

NOTE: FAIR INDICATES FEW OR NO CLOUDS BELOW 12,000 FEET WITH NO
SIGNIFICANT WEATHER AND/OR OBSTRUCTIONS TO VISIBILITY.

AZZ001>003-036-220500-
NORTHWEST ARIZONA

CITY           SKY/WX    TMP DP  RH WIND       PRES   REMARKS
BULLHEAD CITY  CLEAR    109  30   6 CALM      29.54S HX 101
KINGMAN        CLEAR     92  30  11 SW13      29.83R
$$

AZZ004>008-015-016-018-220500-
NORTH CENTRAL ARIZONA

CITY           SKY/WX    TMP DP  RH WIND       PRES   REMARKS
GRAND CANYON   CLEAR     73  27  18 SW6       30.13R
PRESCOTT       CLEAR     87  26  11 SW10      29.99R
FLAGSTAFF      CLEAR     79  25  13 W7        30.16R
PAYSON         PTCLDY    91  28  10 W6        30.01R
PAGE           CLEAR     97  28   8 W7        29.84R
$$

AZZ009>014-017-220500-
NORTHEAST ARIZONA

CITY           SKY/WX    TMP DP  RH WIND       PRES   REMARKS
WINSLOW        MOCLDY    96  29   9 SW12G20   29.95R
SAINT JOHNS    MOCLDY    85  33  15 SW5       30.02R
WINDOW ROCK    PTCLDY    69  36  29 CALM      30.11R
SHOW LOW       MOCLDY    81  32  17 S7        30.12R
$$

AZZ540-542>544-546-548-220500-
GREATER PHOENIX AREA

CITY           SKY/WX    TMP DP  RH WIND       PRES   REMARKS
PHOENIX        PTCLDY   108  39   9 W14       29.57R HX 102
BUCKEYE        CLEAR    100  41  13 SW10      29.59R
LUKE AFB       CLEAR    106  39  10 SW15      29.58R HX 100
DEER VALLEY    CLEAR    106  37   9 W14       29.61R HX 100
SCOTTSDALE     CLEAR    107  36   8 W6        29.62R HX 100
MESA-GATEWAY   PTCLDY   100  43  14 SW6       29.62R
CHANDLER       CLEAR    102  39  11 SW9       29.59R
$$

AZZ539-553-220500-
SOUTHWEST MARICOPA COUNTY AND PINAL COUNTY

CITY           SKY/WX    TMP DP  RH WIND       PRES   REMARKS
CASA GRANDE      N/A    N/A N/A N/A MISG        N/A
GILA BEND      CLEAR    103  49  16 SW12      29.58R
$$

AZZ503-504-507>509-220500-
SOUTHEAST ARIZONA

CITY           SKY/WX    TMP DP  RH WIND       PRES   REMARKS
TUCSON         MOCLDY   100  43  14 CALM      29.78R
DAVIS-MONTHAN  CLEAR     98  44  15 N3        29.77R
NOGALES        MOCLDY    87  42  20 SE7       29.90S
SIERRA VISTA   CLOUDY    85  42  21 S13       29.99R
DOUGLAS        CLOUDY    85  45  24 S7        29.93F
SAFFORD        PTCLDY    94  44  17 E13       29.80S
$$

AZZ532-220500-
SOUTHWEST ARIZONA

CITY           SKY/WX    TMP DP  RH WIND       PRES   REMARKS
YUMA           CLEAR     96  60  30 S12       29.57R
$$

CAZ041-043-047-048-061-525>527-560>570-220500-
SOUTHERN CALIFORNIA

CITY           SKY/WX    TMP DP  RH WIND       PRES   REMARKS
DOWNTOWN L.A.  CLEAR     69  59  70 CALM      29.71R
L.A. AIRPORT   CLEAR     65  62  90 W8        29.72R
SAN DIEGO      MOCLDY    65  61  87 VRB3      29.75R
BURBANK        CLEAR     78  56  46 E9        29.72R
ONTARIO        CLEAR     81  60  48 W8        29.72R
RIVERSIDE      CLEAR     82  58  43 VRB3      29.72R
PALM SPRINGS   CLEAR    106  40  10 NW17G24   29.58R HX 100
EL CENTRO NAS  CLEAR    100  60  26 S9        29.55R HX 100
IMPERIAL       PTCLDY   102  63  27 S12       29.53R HX 104
BLYTHE         PTCLDY   110  32   7 SW12      29.55R HX 102
NEEDLES        CLEAR    108  19   4 W9        29.57S
$$

NVZ020-UTZ003-220500-
SOUTHERN NEVADA-UTAH

CITY           SKY/WX    TMP DP  RH WIND       PRES   REMARKS
LAS VEGAS      CLEAR    104  20   5 SW6       29.67R
SALT LAKE CITY MOCLDY    88  57  35 NW13      29.89R
$$

NMZ009-TXZ055-220500-
NEW MEXICO-WEST TEXAS

CITY           SKY/WX    TMP DP  RH WIND       PRES   REMARKS
ALBUQUERQUE    PTCLDY    91  31  11 N12       29.95R
EL PASO        CLOUDY    91  49  23 W13G28    29.90R
$$


........................KEY........................
SKY/WX - SKY CONDITION/WEATHER
TMP    - TEMPERATURE IN FAHRENHEIT
DP     - DEW POINT IN FAHRENHEIT
RH     - RELATIVE HUMIDITY IN PERCENT
WIND   - DIRECTION AND SPEED IN MILES PER HOUR (MPH)
VRB    - VARIABLE WIND DIRECTION
PRES   - MEAN SEA LEVEL PRESSURE IN INCHES OF MERCURY
         F - FALLING PRESSURE   R - RISING PRESSURE
         S - STEADY PRESSURE
VSB    - VISIBILITY IN MILES
HX     - HEAT INDEX IN FAHRENHEIT
WCI    - WIND CHILL INDEX IN FAHRENHEIT
TC     - TEMPERATURE IN CELSIUS WHICH IS ALSO KNOWN AS
         TEMPERATURE IN CENTIGRADE
AFB    - AIR FORCE BASE
         LUKE AFB IS LUKE AIR FORCE BASE
         DAVIS-MONTHAN IS DAVIS-MONTHAN AIR FORCE BASE
NAS    - NAVAL AIR STATION
         EL CENTRO NAS IS EL CENTRO NAVAL AIR STATION
N/A    - NOT AVAILABLE





USA.gov is the U.S. government's official web portal to all federal, state and local government web resources and services.